| time (UTC) | temp F | wind direction | speed MPH | gust MPH | rain 1hr in | rain 24hr in | rain mn in | humidity % | barometer mb |
| 20260902092332 | 76 | 360 | 1.0 | 4.0 | 0.00 | 0.01 | 0.01 | 85 | 1011.6 |
| 20260902091839 | 77 | 360 | 2.0 | 6.0 | 0.00 | 0.01 | 0.01 | 85 | 1011.6 |
| 20260902091330 | 77 | 207 | 3.0 | 6.0 | 0.00 | 0.01 | 0.01 | 85 | 1011.7 |
| 20260902090837 | 77 | 200 | 3.0 | 6.0 | 0.00 | 0.01 | 0.01 | 85 | 1011.6 |
| 20260902090328 | 77 | 207 | 2.0 | 5.0 | 0.00 | 0.01 | 0.01 | 85 | 1011.5 |
| 20260902085838 | 77 | 211 | 2.0 | 5.0 | 0.00 | 0.01 | 0.01 | 85 | 1011.5 |
| 20260902085330 | 77 | 209 | 2.0 | 4.0 | 0.00 | 0.01 | 0.01 | 85 | 1011.5 |
| 20260902084839 | 77 | 360 | 1.0 | 5.0 | 0.00 | 0.02 | 0.01 | 85 | 1011.5 |
| 20260902084328 | 77 | 360 | 4.0 | 6.0 | 0.00 | 0.02 | 0.01 | 85 | 1011.4 |
| 20260902083836 | 77 | 360 | 4.0 | 6.0 | 0.00 | 0.02 | 0.01 | 85 | 1011.3 |
| 20260902083326 | 77 | 360 | 4.0 | 6.0 | 0.00 | 0.02 | 0.01 | 85 | 1011.3 |
| 20260902082835 | 77 | 360 | 4.0 | 6.0 | 0.00 | 0.02 | 0.01 | 86 | 1011.3 |
| 20260902082345 | 77 | 203 | 4.0 | 6.0 | 0.00 | 0.02 | 0.01 | 86 | 1011.3 |
| 20260902081853 | 77 | 211 | 4.0 | 6.0 | 0.00 | 0.02 | 0.01 | 86 | 1011.2 |
| 20260902081343 | 77 | 211 | 4.0 | 5.0 | 0.00 | 0.02 | 0.01 | 86 | 1011.2 |
| 20260902080831 | 77 | 360 | 4.0 | 5.0 | 0.00 | 0.02 | 0.01 | 87 | 1011.3 |
| 20260902080322 | 77 | 360 | 3.0 | 4.0 | 0.00 | 0.02 | 0.01 | 86 | 1011.4 |
| 20260902075830 | 77 | 213 | 0.0 | 3.0 | 0.00 | 0.02 | 0.01 | 86 | 1011.4 |
| 20260902075338 | 77 | 360 | 2.0 | 3.0 | 0.00 | 0.02 | 0.01 | 86 | 1011.4 |
| 20260902074828 | 77 | 211 | 1.0 | 3.0 | 0.00 | 0.02 | 0.01 | 85 | 1011.3 |
| 20260902074339 | 78 | 213 | 1.0 | 5.0 | 0.00 | 0.02 | 0.01 | 85 | 1011.3 |
| 20260902073827 | 78 | 213 | 1.0 | 5.0 | 0.00 | 0.02 | 0.01 | 85 | 1011.3 |
| 20260902073404 | 78 | 212 | 2.0 | 5.0 | 0.00 | 0.02 | 0.01 | 85 | 1011.3 |
| 20260902072853 | 78 | 201 | 3.0 | 5.0 | 0.00 | 0.02 | 0.01 | 85 | 1011.3 |
| 20260902072322 | 78 | 211 | 2.0 | 6.0 | 0.00 | 0.02 | 0.01 | 85 | 1011.2 |
| 20260902071833 | 78 | 211 | 2.0 | 6.0 | 0.00 | 0.02 | 0.01 | 85 | 1011.3 |
| 20260902071342 | 78 | 207 | 3.0 | 5.0 | 0.00 | 0.02 | 0.01 | 85 | 1011.3 |
| 20260902070824 | 78 | 360 | 4.0 | 5.0 | 0.00 | 0.02 | 0.01 | 85 | 1011.2 |
| 20260902070334 | 78 | 209 | 3.0 | 5.0 | 0.00 | 0.02 | 0.01 | 85 | 1011.2 |
| 20260902065823 | 78 | 207 | 2.0 | 4.0 | 0.00 | 0.02 | 0.01 | 85 | 1011.1 |
| 20260902065335 | 78 | 209 | 2.0 | 4.0 | 0.00 | 0.02 | 0.01 | 85 | 1011.1 |
| 20260902064825 | 78 | 209 | 2.0 | 4.0 | 0.00 | 0.02 | 0.01 | 85 | 1011.1 |
| 20260902064336 | 78 | 209 | 2.0 | 5.0 | 0.00 | 0.02 | 0.01 | 85 | 1011.2 |
| 20260902063844 | 78 | 208 | 3.0 | 5.0 | 0.00 | 0.02 | 0.01 | 85 | 1011.3 |
| 20260902063352 | 78 | 208 | 3.0 | 5.0 | 0.00 | 0.02 | 0.01 | 85 | 1011.4 |
| 20260902062835 | 79 | 199 | 2.0 | 6.0 | 0.00 | 0.02 | 0.01 | 84 | 1011.4 |
| 20260902062325 | 79 | 205 | 4.0 | 6.0 | 0.00 | 0.02 | 0.01 | 85 | 1011.5 |
| 20260902061834 | 78 | 360 | 4.0 | 5.0 | 0.00 | 0.02 | 0.01 | 85 | 1011.4 |
| 20260902061346 | 79 | 210 | 3.0 | 6.0 | 0.00 | 0.02 | 0.01 | 85 | 1011.4 |
| 20260902060856 | 79 | 360 | 4.0 | 6.0 | 0.00 | 0.02 | 0.01 | 85 | 1011.4 |
| 20260902060326 | 79 | 212 | 4.0 | 6.0 | 0.00 | 0.02 | 0.01 | 85 | 1011.3 |
| 20260902055836 | 79 | 360 | 3.0 | 5.0 | 0.00 | 0.02 | 0.01 | 85 | 1011.3 |
| 20260902055327 | 79 | 360 | 3.0 | 7.0 | 0.00 | 0.02 | 0.01 | 85 | 1011.3 |
| 20260902054836 | 79 | 210 | 3.0 | 7.0 | 0.00 | 0.02 | 0.01 | 85 | 1011.2 |
| 20260902054327 | 79 | 211 | 3.0 | 4.0 | 0.00 | 0.02 | 0.01 | 85 | 1011.1 |
| 20260902053901 | 79 | 211 | 2.0 | 4.0 | 0.00 | 0.02 | 0.01 | 84 | 1011.1 |
| 20260902053331 | 79 | 360 | 2.0 | 5.0 | 0.00 | 0.02 | 0.01 | 84 | 1011.1 |
| 20260902052821 | 79 | 360 | 3.0 | 5.0 | 0.00 | 0.02 | 0.01 | 84 | 1011.2 |
| 20260902052333 | 79 | 211 | 2.0 | 4.0 | 0.00 | 0.02 | 0.01 | 84 | 1011.2 |
| 20260902051823 | 79 | 211 | 3.0 | 4.0 | 0.00 | 0.02 | 0.01 | 84 | 1011.3 |
| 20260902051334 | 79 | 360 | 2.0 | 5.0 | 0.00 | 0.02 | 0.01 | 84 | 1011.2 |
| 20260902050829 | 80 | 360 | 2.0 | 5.0 | 0.00 | 0.02 | 0.01 | 84 | 1011.2 |
| 20260902050408 | 80 | 360 | 2.0 | 5.0 | 0.00 | 0.02 | 0.01 | 84 | 1011.2 |
| 20260902045829 | 80 | 212 | 3.0 | 5.0 | 0.00 | 0.02 | 0.01 | 83 | 1011.2 |
| 20260902045401 | 80 | 205 | 4.0 | 6.0 | 0.00 | 0.02 | 0.01 | 83 | 1011.3 |
| 20260902044830 | 80 | 209 | 2.0 | 6.0 | 0.00 | 0.02 | 0.01 | 83 | 1011.3 |
| 20260902044341 | 80 | 360 | 4.0 | 7.0 | 0.00 | 0.02 | 0.01 | 83 | 1011.3 |
| 20260902043830 | 80 | 211 | 4.0 | 7.0 | 0.00 | 0.02 | 0.01 | 84 | 1011.2 |
| 20260902043339 | 80 | 206 | 4.0 | 7.0 | 0.00 | 0.02 | 0.01 | 84 | 1011.1 |
| 20260902042829 | 80 | 211 | 3.0 | 7.0 | 0.00 | 0.02 | 0.01 | 84 | 1011.1 |
| 20260902042338 | 80 | 360 | 4.0 | 7.0 | 0.00 | 0.02 | 0.01 | 84 | 1011.1 |
| 20260902041848 | 80 | 360 | 3.0 | 4.0 | 0.00 | 0.02 | 0.01 | 84 | 1011.1 |
| 20260902041337 | 80 | 360 | 2.0 | 3.0 | 0.00 | 0.02 | 0.01 | 84 | 1011.0 |
| 20260902040843 | 80 | 360 | 0.0 | 3.0 | 0.00 | 0.02 | 0.01 | 84 | 1011.1 |
| 20260902040352 | 80 | 211 | 0.0 | 3.0 | 0.00 | 0.02 | 0.01 | 84 | 1011.2 |
| 20260902035821 | 80 | 360 | 0.0 | 4.0 | 0.00 | 0.02 | 0.01 | 84 | 1011.1 |
| 20260902035331 | 80 | 209 | 1.0 | 4.0 | 0.00 | 0.02 | 0.01 | 84 | 1011.1 |
| 20260902034821 | 81 | 360 | 2.0 | 4.0 | 0.00 | 0.02 | 0.01 | 84 | 1011.2 |
| 20260902034332 | 81 | 210 | 1.0 | 4.0 | 0.00 | 0.02 | 0.01 | 84 | 1011.3 |
| 20260902033840 | 81 | 360 | 2.0 | 4.0 | 0.00 | 0.02 | 0.01 | 84 | 1011.1 |
| 20260902033331 | 81 | 360 | 2.0 | 4.0 | 0.00 | 0.02 | 0.01 | 84 | 1011.2 |
| 20260902032821 | 81 | 360 | 2.0 | 5.0 | 0.00 | 0.02 | 0.01 | 84 | 1011.1 |
| 20260902032331 | 81 | 360 | 2.0 | 5.0 | 0.00 | 0.02 | 0.01 | 84 | 1011.1 |
| 20260902031822 | 81 | 360 | 2.0 | 5.0 | 0.00 | 0.02 | 0.01 | 83 | 1011.3 |
| 20260902031329 | 81 | 209 | 3.0 | 5.0 | 0.00 | 0.02 | 0.01 | 83 | 1011.4 |
| 20260902030836 | 81 | 207 | 1.0 | 4.0 | 0.00 | 0.02 | 0.01 | 83 | 1011.5 |
| 20260902030325 | 82 | 208 | 2.0 | 6.0 | 0.00 | 0.02 | 0.01 | 83 | 1011.5 |
| 20260902025835 | 82 | 211 | 2.0 | 6.0 | 0.00 | 0.02 | 0.01 | 83 | 1011.5 |
| 20260902025346 | 82 | 360 | 3.0 | 5.0 | 0.00 | 0.02 | 0.01 | 83 | 1011.5 |
| 20260902024855 | 82 | 360 | 3.0 | 6.0 | 0.00 | 0.03 | 0.01 | 83 | 1011.4 |
| 20260902024325 | 82 | 360 | 4.0 | 6.0 | 0.00 | 0.03 | 0.01 | 83 | 1011.4 |
| 20260902023900 | 82 | 211 | 2.0 | 5.0 | 0.00 | 0.03 | 0.01 | 83 | 1011.3 |
| 20260902023330 | 82 | 360 | 2.0 | 4.0 | 0.00 | 0.03 | 0.01 | 83 | 1011.3 |
| 20260902022906 | 82 | 209 | 1.0 | 5.0 | 0.00 | 0.03 | 0.01 | 83 | 1011.3 |
| 20260902022355 | 82 | 209 | 3.0 | 5.0 | 0.00 | 0.03 | 0.01 | 83 | 1011.3 |
| 20260902021824 | 82 | 208 | 1.0 | 5.0 | 0.00 | 0.03 | 0.01 | 82 | 1011.3 |
| 20260902021335 | 83 | 360 | 2.0 | 5.0 | 0.00 | 0.03 | 0.01 | 82 | 1011.3 |
| 20260902020842 | 83 | 360 | 3.0 | 5.0 | 0.00 | 0.03 | 0.01 | 81 | 1011.3 |
| 20260902020331 | 83 | 360 | 3.0 | 5.0 | 0.00 | 0.03 | 0.01 | 81 | 1011.3 |
| 20260902015837 | 83 | 360 | 2.0 | 5.0 | 0.00 | 0.03 | 0.01 | 82 | 1011.3 |
| 20260902015346 | 83 | 209 | 2.0 | 6.0 | 0.00 | 0.03 | 0.01 | 82 | 1011.2 |
| 20260902014834 | 83 | 360 | 4.0 | 6.0 | 0.00 | 0.03 | 0.01 | 82 | 1011.2 |
| 20260902014325 | 83 | 360 | 3.0 | 6.0 | 0.00 | 0.03 | 0.01 | 82 | 1011.1 |
| 20260902013833 | 83 | 207 | 2.0 | 5.0 | 0.00 | 0.03 | 0.01 | 82 | 1011.1 |
| 20260902013322 | 84 | 209 | 3.0 | 5.0 | 0.00 | 0.03 | 0.01 | 81 | 1010.9 |
| 20260902012832 | 84 | 202 | 2.0 | 5.0 | 0.00 | 0.03 | 0.01 | 81 | 1010.9 |
| 20260902012321 | 84 | 360 | 4.0 | 5.0 | 0.00 | 0.03 | 0.01 | 80 | 1010.8 |
| 20260902011832 | 84 | 360 | 3.0 | 5.0 | 0.00 | 0.03 | 0.01 | 80 | 1010.8 |
| 20260902011324 | 84 | 360 | 2.0 | 5.0 | 0.00 | 0.03 | 0.01 | 80 | 1010.6 |
| 20260902010832 | 84 | 360 | 2.0 | 5.0 | 0.00 | 0.03 | 0.01 | 80 | 1010.5 |
| 20260902010322 | 84 | 360 | 3.0 | 5.0 | 0.00 | 0.03 | 0.01 | 80 | 1010.4 |
| 20260902005859 | 84 | 360 | 2.0 | 5.0 | 0.00 | 0.03 | 0.01 | 80 | 1010.4 |
| 20260902005346 | 85 | 360 | 2.0 | 4.0 | 0.00 | 0.03 | 0.01 | 80 | 1010.3 |
| 20260902004835 | 85 | 360 | 2.0 | 4.0 | 0.00 | 0.03 | 0.01 | 79 | 1010.3 |
| 20260902004345 | 85 | 360 | 1.0 | 4.0 | 0.00 | 0.03 | 0.01 | 79 | 1010.3 |
| 20260902003833 | 85 | 360 | 2.0 | 4.0 | 0.00 | 0.03 | 0.01 | 79 | 1010.4 |
| 20260902003325 | 86 | 360 | 2.0 | 5.0 | 0.00 | 0.03 | 0.01 | 78 | 1010.3 |
| 20260902002831 | 86 | 360 | 1.0 | 5.0 | 0.00 | 0.03 | 0.01 | 78 | 1010.3 |
| 20260902002340 | 86 | 185 | 2.0 | 4.0 | 0.00 | 0.03 | 0.01 | 78 | 1010.3 |
| 20260902001828 | 86 | 190 | 0.0 | 5.0 | 0.00 | 0.03 | 0.01 | 77 | 1010.4 |
| 20260902001340 | 87 | 360 | 1.0 | 5.0 | 0.00 | 0.03 | 0.01 | 76 | 1010.4 |
| 20260902000829 | 87 | 180 | 1.0 | 4.0 | 0.00 | 0.03 | 0.01 | 76 | 1010.4 |
| 20260902000338 | 87 | 360 | 2.0 | 5.0 | 0.00 | 0.03 | 0.01 | 75 | 1010.3 |
| 20260901235828 | 87 | 360 | 3.0 | 5.0 | 0.00 | 0.03 | 0.01 | 75 | 1010.3 |
| 20260901235339 | 88 | 360 | 3.0 | 5.0 | 0.00 | 0.03 | 0.01 | 75 | 1010.4 |
| 20260901234829 | 88 | 360 | 3.0 | 5.0 | 0.00 | 0.04 | 0.01 | 75 | 1010.4 |
| 20260901234340 | 88 | 360 | 3.0 | 5.0 | 0.00 | 0.04 | 0.01 | 74 | 1010.5 |
| 20260901233828 | 89 | 360 | 3.0 | 6.0 | 0.00 | 0.04 | 0.01 | 73 | 1010.4 |
| 20260901233337 | 89 | 360 | 3.0 | 7.0 | 0.00 | 0.04 | 0.01 | 73 | 1010.4 |
| 20260901232846 | 89 | 360 | 2.0 | 7.0 | 0.00 | 0.04 | 0.01 | 73 | 1010.5 |
| 20260901232354 | 90 | 360 | 3.0 | 5.0 | 0.00 | 0.04 | 0.01 | 73 | 1010.6 |
| 20260901231825 | 90 | 360 | 3.0 | 7.0 | 0.00 | 0.04 | 0.01 | 72 | 1010.6 |
| 20260901231336 | 90 | 360 | 4.0 | 8.0 | 0.00 | 0.04 | 0.01 | 72 | 1010.6 |
| 20260901230844 | 90 | 360 | 3.0 | 8.0 | 0.00 | 0.04 | 0.01 | 72 | 1010.5 |
| 20260901230332 | 91 | 360 | 1.0 | 7.0 | 0.00 | 0.04 | 0.01 | 72 | 1010.6 |
| 20260901225822 | 91 | 360 | 2.0 | 6.0 | 0.00 | 0.04 | 0.01 | 72 | 1010.7 |
| 20260901225331 | 91 | 360 | 2.0 | 6.0 | 0.00 | 0.04 | 0.01 | 71 | 1010.7 |
| 20260901224836 | 91 | 178 | 4.0 | 6.0 | 0.00 | 0.05 | 0.01 | 71 | 1010.7 |
| 20260901224327 | 92 | 186 | 2.0 | 7.0 | 0.00 | 0.05 | 0.01 | 72 | 1010.7 |
| 20260901223834 | 92 | 360 | 2.0 | 9.0 | 0.00 | 0.05 | 0.01 | 72 | 1010.6 |
| 20260901223324 | 92 | 360 | 2.0 | 5.0 | 0.00 | 0.05 | 0.01 | 71 | 1010.6 |
| 20260901222834 | 92 | 360 | 2.0 | 5.0 | 0.00 | 0.05 | 0.01 | 71 | 1010.7 |
| 20260901222323 | 92 | 207 | 1.0 | 6.0 | 0.00 | 0.05 | 0.01 | 70 | 1010.8 |
| 20260901221832 | 91 | 207 | 1.0 | 8.0 | 0.00 | 0.05 | 0.01 | 68 | 1010.8 |
| 20260901221343 | 92 | 206 | 5.0 | 8.0 | 0.00 | 0.05 | 0.01 | 65 | 1010.8 |
| 20260901220829 | 92 | 360 | 4.0 | 7.0 | 0.00 | 0.05 | 0.01 | 66 | 1010.8 |
| 20260901220339 | 92 | 360 | 2.0 | 7.0 | 0.00 | 0.05 | 0.01 | 65 | 1010.8 |
| 20260901215828 | 93 | 205 | 2.0 | 6.0 | 0.00 | 0.05 | 0.01 | 65 | 1010.7 |
| 20260901215338 | 93 | 360 | 4.0 | 6.0 | 0.00 | 0.05 | 0.01 | 65 | 1010.6 |
| 20260901214828 | 93 | 206 | 3.0 | 6.0 | 0.00 | 0.06 | 0.01 | 65 | 1010.7 |
| 20260901214339 | 93 | 360 | 2.0 | 8.0 | 0.00 | 0.06 | 0.01 | 63 | 1010.7 |
| 20260901213826 | 93 | 360 | 4.0 | 8.0 | 0.00 | 0.06 | 0.01 | 63 | 1010.8 |
| 20260901213335 | 93 | 360 | 3.0 | 5.0 | 0.00 | 0.06 | 0.01 | 64 | 1010.8 |
| 20260901212823 | 93 | 360 | 2.0 | 5.0 | 0.00 | 0.06 | 0.01 | 63 | 1010.8 |
| 20260901212334 | 93 | 360 | 1.0 | 7.0 | 0.00 | 0.06 | 0.01 | 61 | 1010.8 |
| 20260901211822 | 93 | 360 | 2.0 | 7.0 | 0.00 | 0.06 | 0.01 | 63 | 1010.8 |
| 20260901211335 | 93 | 360 | 4.0 | 7.0 | 0.00 | 0.06 | 0.01 | 62 | 1010.9 |
| 20260901210824 | 93 | 205 | 3.0 | 6.0 | 0.00 | 0.06 | 0.01 | 62 | 1010.8 |
| 20260901210331 | 93 | 360 | 2.0 | 7.0 | 0.00 | 0.06 | 0.01 | 63 | 1010.8 |
| 20260901205837 | 93 | 360 | 3.0 | 8.0 | 0.00 | 0.06 | 0.01 | 61 | 1010.8 |
| 20260901205322 | 92 | 360 | 3.0 | 8.0 | 0.00 | 0.06 | 0.01 | 61 | 1010.9 |
| 20260901204830 | 92 | 360 | 5.0 | 10.0 | 0.00 | 0.06 | 0.01 | 62 | 1010.9 |
| 20260901204342 | 92 | 206 | 7.0 | 10.0 | 0.00 | 0.06 | 0.01 | 61 | 1011.0 |
| 20260901203850 | 93 | 360 | 3.0 | 9.0 | 0.00 | 0.06 | 0.01 | 62 | 1011.0 |
| 20260901203337 | 93 | 229 | 5.0 | 11.0 | 0.00 | 0.06 | 0.01 | 60 | 1011.0 |
| 20260901202827 | 93 | 360 | 2.0 | 11.0 | 0.00 | 0.06 | 0.01 | 60 | 1011.0 |
| 20260901202337 | 93 | 360 | 5.0 | 9.0 | 0.00 | 0.06 | 0.01 | 59 | 1011.0 |
| 20260901201825 | 93 | 5 | 2.0 | 7.0 | 0.00 | 0.06 | 0.01 | 61 | 1011.0 |
| 20260901201337 | 93 | 360 | 3.0 | 8.0 | 0.00 | 0.06 | 0.01 | 62 | 1011.1 |
| 20260901200825 | 93 | 259 | 3.0 | 8.0 | 0.00 | 0.06 | 0.01 | 64 | 1011.1 |
| 20260901200336 | 93 | 360 | 3.0 | 7.0 | 0.00 | 0.06 | 0.01 | 63 | 1011.1 |
| 20260901195826 | 92 | 360 | 3.0 | 8.0 | 0.00 | 0.06 | 0.01 | 63 | 1011.2 |
| 20260901195334 | 92 | 360 | 0.0 | 10.0 | 0.00 | 0.06 | 0.01 | 65 | 1011.3 |
| 20260901194821 | 92 | 360 | 5.0 | 11.0 | 0.00 | 0.07 | 0.01 | 63 | 1011.3 |
| 20260901194331 | 91 | 195 | 4.0 | 11.0 | 0.00 | 0.07 | 0.01 | 64 | 1011.3 |
| 20260901193838 | 91 | 208 | 5.0 | 10.0 | 0.00 | 0.07 | 0.01 | 63 | 1011.3 |
| 20260901193347 | 91 | 360 | 6.0 | 9.0 | 0.00 | 0.07 | 0.01 | 63 | 1011.3 |
| 20260901192834 | 91 | 360 | 4.0 | 9.0 | 0.00 | 0.07 | 0.01 | 65 | 1011.4 |
| 20260901192322 | 91 | 360 | 3.0 | 10.0 | 0.00 | 0.07 | 0.01 | 66 | 1011.5 |
| 20260901191827 | 91 | 360 | 5.0 | 10.0 | 0.00 | 0.07 | 0.01 | 66 | 1011.5 |
| 20260901191335 | 91 | 360 | 3.0 | 9.0 | 0.00 | 0.07 | 0.01 | 68 | 1011.3 |
| 20260901190842 | 90 | 360 | 5.0 | 9.0 | 0.00 | 0.07 | 0.01 | 68 | 1011.3 |
| 20260901190351 | 90 | 360 | 4.0 | 9.0 | 0.00 | 0.07 | 0.01 | 68 | 1011.4 |
| 20260901185839 | 90 | 360 | 4.0 | 9.0 | 0.00 | 0.07 | 0.01 | 70 | 1011.4 |
| 20260901185328 | 90 | 360 | 4.0 | 8.0 | 0.00 | 0.07 | 0.01 | 72 | 1011.3 |
| 20260901184838 | 89 | 360 | 5.0 | 9.0 | 0.00 | 0.08 | 0.01 | 71 | 1011.5 |
| 20260901184326 | 89 | 360 | 4.0 | 10.0 | 0.00 | 0.08 | 0.01 | 74 | 1011.5 |
| 20260901183832 | 89 | 360 | 4.0 | 12.0 | 0.00 | 0.08 | 0.01 | 74 | 1011.6 |
| 20260901183321 | 89 | 360 | 4.0 | 12.0 | 0.00 | 0.08 | 0.01 | 74 | 1011.5 |
| 20260901182829 | 88 | 360 | 5.0 | 8.0 | 0.00 | 0.08 | 0.01 | 74 | 1011.5 |
| 20260901182337 | 88 | 360 | 3.0 | 8.0 | 0.00 | 0.08 | 0.01 | 77 | 1011.5 |
| 20260901181844 | 88 | 360 | 5.0 | 10.0 | 0.00 | 0.08 | 0.01 | 77 | 1011.5 |
| 20260901181355 | 88 | 360 | 4.0 | 10.0 | 0.00 | 0.08 | 0.01 | 77 | 1011.5 |
| 20260901180821 | 87 | 360 | 4.0 | 9.0 | 0.00 | 0.08 | 0.01 | 79 | 1011.5 |
| 20260901180330 | 87 | 360 | 3.0 | 10.0 | 0.00 | 0.08 | 0.01 | 79 | 1011.5 |
| 20260901175840 | 86 | 197 | 3.0 | 10.0 | 0.00 | 0.08 | 0.01 | 80 | 1011.6 |
| 20260901175329 | 86 | 360 | 3.0 | 8.0 | 0.00 | 0.08 | 0.01 | 81 | 1011.6 |
| 20260901174835 | 86 | 360 | 4.0 | 8.0 | 0.00 | 0.10 | 0.01 | 81 | 1011.7 |
| 20260901174325 | 86 | 360 | 2.0 | 6.0 | 0.00 | 0.10 | 0.01 | 83 | 1011.9 |
| 20260901173830 | 85 | 211 | 2.0 | 9.0 | 0.00 | 0.10 | 0.01 | 84 | 1011.9 |
| 20260901173340 | 85 | 360 | 2.0 | 9.0 | 0.00 | 0.10 | 0.01 | 84 | 1012.0 |
| 20260901172829 | 85 | 360 | 2.0 | 6.0 | 0.00 | 0.10 | 0.01 | 83 | 1011.9 |
| 20260901172337 | 85 | 360 | 4.0 | 6.0 | 0.00 | 0.10 | 0.01 | 84 | 1012.0 |
| 20260901171825 | 84 | 360 | 3.0 | 6.0 | 0.00 | 0.10 | 0.01 | 84 | 1012.1 |
| 20260901171403 | 84 | 204 | 1.0 | 4.0 | 0.00 | 0.10 | 0.01 | 87 | 1012.1 |
| 20260901170830 | 83 | 214 | 1.0 | 4.0 | 0.00 | 0.10 | 0.01 | 87 | 1012.1 |
| 20260901170340 | 83 | 360 | 1.0 | 5.0 | 0.00 | 0.10 | 0.01 | 87 | 1012.1 |
| 20260901165826 | 82 | 360 | 1.0 | 4.0 | 0.00 | 0.10 | 0.01 | 88 | 1012.1 |
| 20260901165337 | 82 | 206 | 2.0 | 4.0 | 0.00 | 0.10 | 0.01 | 88 | 1012.2 |
| 20260901164827 | 82 | 206 | 0.0 | 4.0 | 0.00 | 0.11 | 0.01 | 90 | 1012.2 |
| 20260901164336 | 82 | 206 | 1.0 | 4.0 | 0.01 | 0.11 | 0.01 | 88 | 1012.3 |
| 20260901163823 | 82 | 360 | 1.0 | 5.0 | 0.01 | 0.11 | 0.01 | 87 | 1012.4 |
| 20260901163332 | 82 | 360 | 0.0 | 6.0 | 0.01 | 0.11 | 0.01 | 86 | 1012.4 |
| 20260901162823 | 83 | 360 | 0.0 | 5.0 | 0.01 | 0.11 | 0.01 | 87 | 1012.8 |
| 20260901162357 | 83 | 360 | 1.0 | 5.0 | 0.01 | 0.11 | 0.01 | 87 | 1012.8 |
| 20260901161825 | 83 | 199 | 2.0 | 5.0 | 0.01 | 0.11 | 0.01 | 87 | 1012.5 |
| 20260901161359 | 83 | 360 | 2.0 | 7.0 | 0.01 | 0.11 | 0.01 | 85 | 1012.5 |
| 20260901160846 | 83 | 360 | 1.0 | 7.0 | 0.01 | 0.11 | 0.01 | 84 | 1012.4 |
| 20260901160355 | 84 | 360 | 0.0 | 4.0 | 0.01 | 0.11 | 0.01 | 84 | 1012.4 |
| 20260901155823 | 83 | 360 | 2.0 | 5.0 | 0.01 | 0.11 | 0.01 | 85 | 1012.3 |
| 20260901155332 | 83 | 360 | 2.0 | 5.0 | 0.01 | 0.11 | 0.01 | 86 | 1012.3 |
| 20260901154908 | 82 | 184 | 1.0 | 4.0 | 0.01 | 0.13 | 0.01 | 87 | 1012.3 |
| 20260901154355 | 82 | 195 | 0.0 | 1.0 | 0.01 | 0.13 | 0.01 | 89 | 1012.3 |
| 20260901153822 | 82 | 227 | 0.0 | 0.0 | 0.00 | 0.12 | 0.00 | 87 | 1012.3 |
| 20260901153356 | 82 | 360 | 0.0 | 0.0 | 0.00 | 0.12 | 0.00 | 88 | 1012.3 |
| 20260901152825 | 81 | 360 | 0.0 | 0.0 | 0.00 | 0.12 | 0.00 | 88 | 1012.4 |
| 20260901152335 | 81 | 360 | 0.0 | 0.0 | 0.00 | 0.12 | 0.00 | 88 | 1012.4 |
| 20260901151823 | 81 | 360 | 0.0 | 0.0 | 0.00 | 0.12 | 0.00 | 87 | 1012.2 |
| 20260901151400 | 81 | 360 | 0.0 | 1.0 | 0.00 | 0.12 | 0.00 | 88 | 1012.1 |
| 20260901150826 | 81 | 207 | 0.0 | 1.0 | 0.00 | 0.12 | 0.00 | 88 | 1012.0 |
| 20260901150333 | 81 | 207 | 0.0 | 1.0 | 0.00 | 0.12 | 0.00 | 88 | 1012.2 |
| 20260901145822 | 81 | 205 | 0.0 | 0.0 | 0.00 | 0.12 | 0.00 | 88 | 1012.1 |
| 20260901145328 | 81 | 360 | 0.0 | 1.0 | 0.00 | 0.12 | 0.00 | 88 | 1012.1 |
| 20260901144837 | 81 | 360 | 0.0 | 1.0 | 0.00 | 0.14 | 0.00 | 88 | 1012.2 |
| 20260901144327 | 80 | 360 | 0.0 | 0.0 | 0.00 | 0.14 | 0.00 | 88 | 1012.0 |
| 20260901143836 | 80 | 205 | 0.0 | 4.0 | 0.00 | 0.14 | 0.00 | 88 | 1012.1 |
| 20260901143325 | 80 | 207 | 1.0 | 4.0 | 0.00 | 0.14 | 0.00 | 88 | 1012.1 |
| 20260901142902 | 80 | 360 | 1.0 | 5.0 | 0.00 | 0.14 | 0.00 | 88 | 1012.1 |
| 20260901142330 | 80 | 360 | 2.0 | 5.0 | 0.00 | 0.14 | 0.00 | 88 | 1012.1 |
| 20260901141905 | 80 | 360 | 1.0 | 5.0 | 0.00 | 0.14 | 0.00 | 89 | 1012.2 |
| 20260901141354 | 79 | 207 | 1.0 | 6.0 | 0.00 | 0.14 | 0.00 | 89 | 1012.1 |
| 20260901140840 | 79 | 360 | 0.0 | 6.0 | 0.00 | 0.14 | 0.00 | 90 | 1012.1 |
| 20260901140328 | 79 | 360 | 0.0 | 2.0 | 0.00 | 0.14 | 0.00 | 90 | 1012.2 |
| 20260901135836 | 79 | 360 | 0.0 | 2.0 | 0.00 | 0.14 | 0.00 | 90 | 1012.1 |
| 20260901135345 | 78 | 360 | 0.0 | 2.0 | 0.00 | 0.14 | 0.00 | 91 | 1012.1 |
| 20260901134854 | 78 | 198 | 0.0 | 3.0 | 0.00 | 0.17 | 0.00 | 91 | 1012.2 |
| 20260901134323 | 78 | 360 | 0.0 | 4.0 | 0.00 | 0.17 | 0.00 | 91 | 1012.2 |
| 20260901133832 | 78 | 360 | 1.0 | 4.0 | 0.00 | 0.17 | 0.00 | 91 | 1012.1 |
| 20260901133336 | 77 | 360 | 0.0 | 6.0 | 0.00 | 0.17 | 0.00 | 92 | 1012.1 |
| 20260901132825 | 77 | 360 | 3.0 | 6.0 | 0.00 | 0.17 | 0.00 | 92 | 1012.1 |
| 20260901132340 | 77 | 360 | 0.0 | 4.0 | 0.00 | 0.17 | 0.00 | 93 | 1012.2 |
| 20260901131830 | 77 | 360 | 1.0 | 5.0 | 0.00 | 0.17 | 0.00 | 93 | 1012.1 |
| 20260901131340 | 76 | 208 | 0.0 | 5.0 | 0.00 | 0.17 | 0.00 | 93 | 1012.2 |
| 20260901130848 | 76 | 360 | 3.0 | 5.0 | 0.00 | 0.17 | 0.00 | 93 | 1012.1 |
| 20260901130336 | 76 | 195 | 0.0 | 5.0 | 0.00 | 0.17 | 0.00 | 94 | 1012.1 |
| 20260901125826 | 76 | 209 | 3.0 | 5.0 | 0.00 | 0.17 | 0.00 | 94 | 1012.2 |
| 20260901125337 | 76 | 360 | 2.0 | 5.0 | 0.00 | 0.17 | 0.00 | 94 | 1012.3 |
| 20260901124827 | 76 | 207 | 2.0 | 6.0 | 0.00 | 0.20 | 0.00 | 94 | 1012.2 |
| 20260901124337 | 75 | 360 | 4.0 | 6.0 | 0.00 | 0.20 | 0.00 | 94 | 1012.2 |
| 20260901123845 | 75 | 360 | 3.0 | 5.0 | 0.00 | 0.20 | 0.00 | 94 | 1012.1 |
| 20260901123353 | 75 | 360 | 3.0 | 6.0 | 0.00 | 0.20 | 0.00 | 95 | 1012.0 |
| 20260901122840 | 75 | 209 | 2.0 | 6.0 | 0.00 | 0.20 | 0.00 | 95 | 1012.0 |
| 20260901122330 | 75 | 360 | 1.0 | 4.0 | 0.00 | 0.20 | 0.00 | 95 | 1011.9 |
| 20260901121839 | 75 | 360 | 0.0 | 3.0 | 0.00 | 0.20 | 0.00 | 96 | 1011.9 |
| 20260901121330 | 74 | 211 | 0.0 | 3.0 | 0.00 | 0.20 | 0.00 | 95 | 1011.9 |
| 20260901120835 | 74 | 360 | 1.0 | 3.0 | 0.00 | 0.20 | 0.00 | 95 | 1011.8 |
| 20260901120340 | 74 | 213 | 0.0 | 1.0 | 0.00 | 0.20 | 0.00 | 96 | 1011.8 |
| 20260901115848 | 74 | 211 | 0.0 | 0.0 | 0.00 | 0.20 | 0.00 | 95 | 1011.7 |
| 20260901115337 | 74 | 213 | 0.0 | 1.0 | 0.00 | 0.20 | 0.00 | 95 | 1011.6 |
| 20260901114827 | 74 | 213 | 0.0 | 2.0 | 0.00 | 0.23 | 0.00 | 95 | 1011.6 |
| 20260901114338 | 73 | 212 | 0.0 | 1.0 | 0.00 | 0.23 | 0.00 | 95 | 1011.6 |
| 20260901113827 | 73 | 360 | 0.0 | 2.0 | 0.00 | 0.23 | 0.00 | 95 | 1011.6 |
| 20260901113337 | 73 | 360 | 0.0 | 2.0 | 0.00 | 0.23 | 0.00 | 95 | 1011.7 |
| 20260901112827 | 73 | 360 | 0.0 | 3.0 | 0.00 | 0.23 | 0.00 | 95 | 1011.8 |
| 20260901112336 | 73 | 360 | 1.0 | 3.0 | 0.00 | 0.23 | 0.00 | 95 | 1011.7 |
| 20260901111825 | 73 | 360 | 2.0 | 3.0 | 0.00 | 0.23 | 0.00 | 95 | 1011.5 |
| 20260901111334 | 73 | 215 | 1.0 | 2.0 | 0.00 | 0.23 | 0.00 | 95 | 1011.4 |
| 20260901110822 | 73 | 215 | 0.0 | 4.0 | 0.00 | 0.23 | 0.00 | 95 | 1011.3 |
| 20260901110330 | 73 | 360 | 2.0 | 4.0 | 0.00 | 0.23 | 0.00 | 95 | 1011.3 |
| 20260901105839 | 73 | 360 | 0.0 | 3.0 | 0.00 | 0.23 | 0.00 | 95 | 1011.2 |
| 20260901105329 | 73 | 216 | 1.0 | 3.0 | 0.00 | 0.23 | 0.00 | 95 | 1011.1 |
| 20260901104836 | 73 | 360 | 0.0 | 0.0 | 0.00 | 0.23 | 0.00 | 95 | 1011.1 |
| 20260901104347 | 73 | 360 | 0.0 | 0.0 | 0.00 | 0.23 | 0.00 | 95 | 1010.9 |
| 20260901103840 | 73 | 360 | 0.0 | 0.0 | 0.00 | 0.23 | 0.23 | 95 | 1011.0 |
| 20260901103350 | 73 | 360 | 0.0 | 0.0 | 0.00 | 0.23 | 0.23 | 95 | 1010.8 |
| 20260901102835 | 73 | 360 | 0.0 | 0.0 | 0.00 | 0.23 | 0.23 | 95 | 1011.0 |
| 20260901102323 | 73 | 217 | 0.0 | 0.0 | 0.00 | 0.23 | 0.23 | 95 | 1011.0 |
| 20260901101832 | 74 | 217 | 0.0 | 0.0 | 0.00 | 0.23 | 0.23 | 95 | 1011.0 |
| 20260901101341 | 74 | 360 | 0.0 | 2.0 | 0.00 | 0.23 | 0.23 | 95 | 1011.0 |
| 20260901100829 | 74 | 360 | 0.0 | 3.0 | 0.00 | 0.23 | 0.23 | 95 | 1010.9 |
| 20260901100339 | 74 | 360 | 2.0 | 3.0 | 0.00 | 0.23 | 0.23 | 95 | 1010.9 |
| 20260901095828 | 74 | 360 | 2.0 | 3.0 | 0.00 | 0.23 | 0.23 | 95 | 1010.8 |
| 20260901095336 | 74 | 360 | 2.0 | 3.0 | 0.00 | 0.23 | 0.23 | 94 | 1011.0 |
| 20260901094826 | 74 | 219 | 0.0 | 0.0 | 0.00 | 0.23 | 0.23 | 94 | 1011.0 |
| 20260901094336 | 74 | 360 | 0.0 | 0.0 | 0.00 | 0.23 | 0.23 | 94 | 1011.1 |
| 20260901093844 | 74 | 360 | 0.0 | 0.0 | 0.01 | 0.23 | 0.23 | 94 | 1011.0 |
| 20260901093332 | 74 | 221 | 0.0 | 1.0 | 0.01 | 0.23 | 0.23 | 94 | 1011.1 |
| 20260901092840 | 74 | 360 | 0.0 | 2.0 | 0.01 | 0.23 | 0.23 | 94 | 1011.0 |